When you browse on this site, cookies collect data to enhance your experience and personalize the content and advertising you see.
Visit our Privacy Policy to learn more. By continuing to use the site, you agree to this use of cookies and data.
  • In Czech Republic
  • List of Countries
  • For 7 days
  • Water Temperature
  • Weather Map
  • Weather Widgets
  • user-avatar
    Login

    Hourly Weather Novoe Selo

    Today, 6 June, Saturday

    Time Temperature Precipitation Wind Pressure Humidity
    00:00 +11°C° 0 mm 3 mps 738 mmHg 95%
    01:00 +12°C° 0 mm 3 mps 739 mmHg 96%
    02:00 +12°C° 0 mm 3 mps 738 mmHg 98%
    03:00 +13°C° 0 mm 3 mps 738 mmHg 97%
    04:00 +13°C° 0 mm 3 mps 738 mmHg 96%
    05:00 +13°C° 0 mm 4 mps 738 mmHg 96%
    06:00 +15°C° 0 mm 4 mps 738 mmHg 93%
    07:00 +17°C° 0 mm 4 mps 738 mmHg 90%
    08:00 +19°C° 0 mm 4 mps 739 mmHg 87%
    09:00 +19°C° 0.3 mm 4 mps 739 mmHg 88%
    10:00 +19°C° 0.3 mm 4 mps 739 mmHg 90%
    11:00 +19°C° 0.3 mm 4 mps 739 mmHg 91%
    12:00 +20°C° 0.2 mm 4 mps 739 mmHg 88%
    13:00 +21°C° 0.2 mm 4 mps 739 mmHg 85%
    14:00 +21°C° 0.2 mm 5 mps 740 mmHg 83%
    15:00 +22°C° 0.4 mm 5 mps 740 mmHg 83%
    16:00 +22°C° 0.4 mm 4 mps 740 mmHg 83%
    17:00 +22°C° 0.4 mm 4 mps 740 mmHg 84%
    18:00 +21°C° 0.2 mm 3 mps 740 mmHg 86%
    19:00 +20°C° 0.2 mm 3 mps 741 mmHg 89%
    20:00 +18°C° 0.2 mm 2 mps 741 mmHg 91%
    21:00 +18°C° 0 mm 2 mps 742 mmHg 91%
    22:00 +17°C° 0 mm 2 mps 742 mmHg 92%
    23:00 +16°C° 0 mm 2 mps 743 mmHg 92%

    Tomorrow, 7 June, Sunday

    Time Temperature Precipitation Wind Pressure Humidity
    00:00 +15°C° 0 mm 2 mps 743 mmHg 91%
    01:00 +15°C° 0 mm 1 mps 743 mmHg 91%
    02:00 +14°C° 0 mm 1 mps 744 mmHg 91%
    03:00 +14°C° 0 mm 1 mps 744 mmHg 91%
    04:00 +15°C° 0 mm 1 mps 744 mmHg 91%
    05:00 +15°C° 0 mm 1 mps 744 mmHg 91%
    06:00 +16°C° 0 mm 1 mps 745 mmHg 87%
    07:00 +19°C° 0 mm 1 mps 745 mmHg 84%
    08:00 +20°C° 0 mm 2 mps 745 mmHg 80%
    09:00 +21°C° 0 mm 2 mps 745 mmHg 76%
    10:00 +23°C° 0 mm 2 mps 746 mmHg 72%
    11:00 +24°C° 0 mm 2 mps 746 mmHg 67%
    12:00 +25°C° 0 mm 2 mps 746 mmHg 66%
    13:00 +25°C° 0 mm 2 mps 746 mmHg 65%
    14:00 +26°C° 0 mm 2 mps 745 mmHg 63%
    15:00 +26°C° 0.2 mm 2 mps 745 mmHg 68%
    16:00 +26°C° 0.2 mm 2 mps 745 mmHg 72%
    17:00 +26°C° 0.2 mm 2 mps 745 mmHg 76%
    18:00 +24°C° 0.2 mm 2 mps 745 mmHg 80%
    19:00 +23°C° 0.2 mm 2 mps 745 mmHg 84%
    20:00 +20°C° 0.2 mm 3 mps 744 mmHg 88%
    21:00 +20°C° 0 mm 3 mps 744 mmHg 90%
    22:00 +19°C° 0 mm 3 mps 745 mmHg 92%
    23:00 +18°C° 0 mm 3 mps 745 mmHg 94%

    Day after tomorrow, 8 June, Monday

    Time Temperature Precipitation Wind Pressure Humidity
    00:00 +18°C° 0.1 mm 2 mps 745 mmHg 94%
    01:00 +18°C° 0.1 mm 2 mps 745 mmHg 94%
    02:00 +18°C° 0.1 mm 2 mps 745 mmHg 95%
    03:00 +18°C° 0 mm 2 mps 745 mmHg 95%
    04:00 +18°C° 0 mm 2 mps 745 mmHg 95%
    05:00 +18°C° 0 mm 2 mps 745 mmHg 95%
    06:00 +19°C° 0 mm 3 mps 745 mmHg 91%
    07:00 +21°C° 0 mm 3 mps 745 mmHg 88%
    08:00 +22°C° 0 mm 3 mps 745 mmHg 85%
    09:00 +23°C° 0 mm 4 mps 745 mmHg 80%
    10:00 +25°C° 0 mm 4 mps 745 mmHg 76%
    11:00 +26°C° 0 mm 4 mps 745 mmHg 71%
    12:00 +27°C° 0 mm 4 mps 745 mmHg 70%
    13:00 +27°C° 0 mm 3 mps 745 mmHg 69%
    14:00 +28°C° 0 mm 3 mps 745 mmHg 68%
    15:00 +28°C° 0.2 mm 3 mps 745 mmHg 70%
    16:00 +27°C° 0.2 mm 3 mps 744 mmHg 73%
    17:00 +27°C° 0.2 mm 2 mps 744 mmHg 75%
    18:00 +25°C° 0 mm 2 mps 744 mmHg 79%
    19:00 +24°C° 0 mm 2 mps 744 mmHg 82%
    20:00 +21°C° 0 mm 2 mps 744 mmHg 86%
    21:00 +20°C° 0 mm 2 mps 744 mmHg 87%
    22:00 +20°C° 0 mm 2 mps 744 mmHg 88%
    23:00 +19°C° 0 mm 2 mps 745 mmHg 90%

    9 June, Tuesday

    Time Temperature Precipitation Wind Pressure Humidity
    00:00 +19°C° 0 mm 1 mps 745 mmHg 90%
    01:00 +19°C° 0 mm 1 mps 745 mmHg 90%
    02:00 +19°C° 0 mm 1 mps 745 mmHg 91%
    03:00 +19°C° 0 mm 1 mps 745 mmHg 91%
    04:00 +19°C° 0 mm 1 mps 745 mmHg 91%
    05:00 +19°C° 0 mm 2 mps 745 mmHg 92%
    06:00 +20°C° 0 mm 2 mps 745 mmHg 88%
    07:00 +23°C° 0 mm 2 mps 745 mmHg 85%
    08:00 +24°C° 0 mm 2 mps 745 mmHg 82%
    09:00 +25°C° 0.5 mm 2 mps 745 mmHg 79%
    10:00 +26°C° 0.5 mm 2 mps 745 mmHg 76%
    11:00 +27°C° 0.5 mm 2 mps 745 mmHg 73%
    12:00 +27°C° 0.8 mm 2 mps 745 mmHg 72%
    13:00 +27°C° 0.8 mm 2 mps 745 mmHg 70%
    14:00 +28°C° 0.8 mm 2 mps 745 mmHg 69%
    15:00 +27°C° 0.5 mm 2 mps 744 mmHg 73%
    16:00 +27°C° 0.5 mm 2 mps 744 mmHg 77%
    17:00 +26°C° 0.5 mm 2 mps 744 mmHg 80%
    18:00 +25°C° 0.9 mm 2 mps 744 mmHg 84%
    19:00 +24°C° 0.9 mm 2 mps 744 mmHg 87%
    20:00 +23°C° 0.9 mm 2 mps 744 mmHg 91%
    21:00 +21°C° 0.3 mm 2 mps 745 mmHg 92%
    22:00 +21°C° 0.3 mm 3 mps 745 mmHg 94%
    23:00 +20°C° 0.3 mm 3 mps 745 mmHg 95%

    10 June, Wednesday

    Time Temperature Precipitation Wind Pressure Humidity
    00:00 +19°C° 0 mm 3 mps 745 mmHg 96%
    01:00 +19°C° 0 mm 3 mps 745 mmHg 96%
    02:00 +19°C° 0 mm 3 mps 744 mmHg 97%
    03:00 +19°C° 0.3 mm 3 mps 744 mmHg 97%
    04:00 +19°C° 0.3 mm 3 mps 745 mmHg 97%
    05:00 +19°C° 0.3 mm 3 mps 745 mmHg 97%
    06:00 +20°C° 0.5 mm 3 mps 745 mmHg 95%
    07:00 +21°C° 0.5 mm 3 mps 745 mmHg 92%
    08:00 +22°C° 0.5 mm 3 mps 745 mmHg 90%
    09:00 +23°C° 0.1 mm 4 mps 745 mmHg 86%
    10:00 +25°C° 0.1 mm 4 mps 745 mmHg 82%
    11:00 +26°C° 0.1 mm 4 mps 745 mmHg 79%
    12:00 +26°C° 0.6 mm 4 mps 745 mmHg 77%
    13:00 +26°C° 0.6 mm 4 mps 744 mmHg 76%
    14:00 +27°C° 0.6 mm 4 mps 744 mmHg 75%
    15:00 +26°C° 1.5 mm 3 mps 744 mmHg 77%
    16:00 +26°C° 1.5 mm 3 mps 744 mmHg 79%
    17:00 +26°C° 1.5 mm 3 mps 744 mmHg 81%
    18:00 +25°C° 0.2 mm 3 mps 744 mmHg 84%
    19:00 +23°C° 0.2 mm 2 mps 744 mmHg 87%
    20:00 +21°C° 0.2 mm 2 mps 744 mmHg 90%
    21:00 +20°C° 0 mm 2 mps 744 mmHg 91%
    22:00 +19°C° 0 mm 2 mps 744 mmHg 92%
    23:00 +19°C° 0 mm 2 mps 744 mmHg 94%

    11 June, Thursday

    Time Temperature Precipitation Wind Pressure Humidity
    00:00 +18°C° 0 mm 2 mps 744 mmHg 95%
    01:00 +18°C° 0 mm 2 mps 744 mmHg 95%
    02:00 +17°C° 0 mm 2 mps 744 mmHg 96%
    03:00 +18°C° 0 mm 2 mps 744 mmHg 96%
    04:00 +18°C° 0 mm 2 mps 744 mmHg 96%
    05:00 +18°C° 0 mm 2 mps 744 mmHg 96%
    06:00 +19°C° 0 mm 3 mps 745 mmHg 93%
    07:00 +21°C° 0 mm 3 mps 745 mmHg 89%
    08:00 +22°C° 0 mm 3 mps 745 mmHg 86%
    09:00 +24°C° 0 mm 3 mps 745 mmHg 82%
    10:00 +25°C° 0 mm 3 mps 745 mmHg 77%
    11:00 +26°C° 0 mm 3 mps 745 mmHg 72%
    12:00 +27°C° 0 mm 3 mps 745 mmHg 70%
    13:00 +27°C° 0 mm 3 mps 745 mmHg 68%
    14:00 +27°C° 0 mm 3 mps 744 mmHg 66%
    15:00 +27°C° 0 mm 2 mps 744 mmHg 68%
    16:00 +27°C° 0 mm 2 mps 744 mmHg 70%
    17:00 +27°C° 0 mm 2 mps 744 mmHg 72%
    18:00 +25°C° 0 mm 2 mps 744 mmHg 75%
    19:00 +24°C° 0 mm 2 mps 744 mmHg 79%
    20:00 +21°C° 0 mm 3 mps 744 mmHg 82%
    21:00 +20°C° 0 mm 2 mps 745 mmHg 84%
    22:00 +19°C° 0 mm 2 mps 745 mmHg 85%
    23:00 +18°C° 0 mm 2 mps 745 mmHg 86%
    Show more